Find Starlink 37469

NORAD ID: 69168 Int'l Des: 2026-111 Owner: SPXS Country: US Constellation: starlink operational
LEOCIRCULAR

Current View

Loading 3D Globe...

About Starlink 37469

Starlink 37469 (NORAD 69168) is a starlink constellation satellite (v2 mini) launched May 21, 2026 by SPXS of US. It operates in LEO, CIRCULAR orbit with a mass of 575.00 kg.

Upcoming Passes

Passes for default location (London). Set your location on the main map for personalized predictions.

Altitude History

Loading altitude history...

Two-Line Element Set

1 69168U 26111W 26234.92660316 .00011546 00000-0 35213-3 0 9995
2 69168 53.1570 199.2073 0000956 105.4975 254.6133 15.34416860 14518
Epoch: Aug 22, 2026 • Age: 26 hours

Current Status

Altitude 471.7 km
Apogee / Perigee N/A
Velocity 7.63 km/s
Sub-Earth Point -29.49°S, 63.85°E
Launch Date May 21, 2026
Age 0.2 years
Type internet

Technical Details

Classification Payload
Mass 575.00 kg
Dry Mass 530.00 kg
Total Mass 575.00 kg
Length 0.30 m
Diameter 4.10 m
Span 29.00 m
Shape Box + pan
Manufacturer SPXS
Bus Type Starlink V2MO
Phase Status In Orbit
Owner/State SPXS/US

Most Searched